Location: Plum
(40.5000°N, 79.7500°W)
Time: 03:22:04
(UTC-05:00)

Daily predictions for brighter satellites

Satellite Brightness Start Highest point End
(mag) Time Altitude Azimuth Time Altitude Azimuth Time Altitude Azimuth
CZ-4C R/B 4.3 03:37:32 32° ENE 03:37:32 32° ENE 03:42:54 10° ESE
ATLAS CENTAUR R/B 4.5 04:22:18 13° ENE 04:22:18 13° ENE 04:23:08 10° E
Cosmos 1709 Rocket 4.4 04:34:14 59° ENE 04:34:14 59° ENE 04:40:06 10° NNE
Cosmos 2278 Rocket 3.2 04:47:12 24° SSE 04:50:11 44° ESE 04:55:32 10° NE
Cosmos 1844 Rocket 4.2 05:02:25 24° N 05:02:25 24° N 05:04:39 10° NNE
Cosmos 371 Rocket 3.9 05:02:17 54° ENE 05:02:23 54° ENE 05:07:09 10° SE
SL-08 ROCKET BODY 4.3 05:04:32 10° S 05:10:22 80° E 05:16:18 10° N
Cosmos 2074 Rocket 4.5 05:15:51 10° S 05:21:55 60° E 05:28:02 10° NNE
Cosmos 1844 4.4 05:24:37 37° NNW 05:24:37 37° NNW 05:28:31 10° NNE
CZ-4C R/B 2.9 05:22:46 47° WNW 05:24:52 63° WSW 05:32:49 10° SSE
Abrixas rocket 3.8 05:27:51 33° E 05:27:51 33° E 05:29:56 10° ESE
Meteor 1-16 Rocket 4.1 05:23:17 10° S 05:28:53 82° E 05:34:21 10° NNE
USA 234 4.2 05:23:50 10° NE 05:29:18 29° NNW 05:30:00 29° NNW
Cosmos 1626 2.9 05:29:07 40° NNE 05:30:02 52° E 05:33:40 10° SSE
Cosmos 1328 3.8 05:30:44 78° E 05:30:44 78° E 05:34:37 10° S
Cosmos 2082 Rocket 3.5 05:27:26 10° N 05:32:40 38° ENE 05:37:51 10° SE
CZ-2C R/B 3.7 05:30:07 10° S 05:34:36 61° WSW 05:34:36 61° WSW
Cosmos 2181 Rocket 3.9 05:31:38 10° NNW 05:37:45 58° W 05:43:45 10° S
Milstar 3 4.1 05:34:43 19° SW 05:38:57 31° S 05:44:41 10° ESE
H-2A R/B 4.4 05:32:45 29° WSW 05:39:01 58° S 06:57:12 10° ESE
PAYLOAD A 3.7 05:39:27 10° NNE 05:44:19 87° WNW 05:49:02 10° SSW
IDEFIX/ARIANE 42P 2.5 05:39:16 10° NNE 05:44:34 88° WNW 05:49:51 10° SSW
Meteor 1-11 4.3 05:39:05 10° N 05:44:54 81° E 05:50:43 10° SSE
USA 229 DEB 3.6 05:39:27 10° SSW 05:46:12 90° WNW 05:53:09 10° NE
USA 229 3.6 05:39:34 10° SSW 05:46:18 90° SE 05:53:15 10° NE
Cosmos 1766 Rocket 3.4 05:45:44 30° NNW 05:47:52 73° W 05:52:16 10° S
Cosmos 2208 Rocket 4.0 05:44:54 20° NNW 05:48:42 81° WSW 05:54:08 10° SSE
COSMOS 2406 4.2 05:50:06 28° WSW 05:50:06 28° WSW 05:53:51 10° SSW
Cosmos 1850 Rocket 4.1 05:47:41 36° WSW 05:49:27 50° WNW 05:54:37 10° N
Cosmos 1703 3.7 05:47:51 10° N 05:51:47 62° E 05:55:40 10° SSE
GPS 2-04 Rocket1 3.6 05:52:01 35° SW 05:53:02 42° S 05:57:03 10° ESE
COSMO-SKYMED 1 2.6 05:51:26 10° S 05:55:41 55° W 05:57:31 31° NW
Cosmos 304 Rocket 4.2 05:51:03 10° NNW 05:55:47 61° ENE 06:00:31 10° SSE
Radarsat Rocket 4.0 05:50:30 10° NNE 05:57:06 86° WNW 06:03:03 10° SSW
Cosmos 332 Rocket 4.2 05:57:08 37° W 05:57:30 38° WSW 06:01:58 10° S
Cosmos 2297 4.1 05:52:46 10° S 05:58:25 66° ESE 06:04:06 10° NNE
SJ-12 4.5 05:54:53 10° NNE 05:58:59 60° E 06:03:03 10° S
Cosmos 468 Rocket 4.0 05:54:04 11° NNW 05:59:03 83° ENE 06:04:18 10° SSE
Cosmos 1833 Rocket 3.0 05:53:25 10° NNW 05:59:03 65° ENE 06:04:39 10° SSE
ATLAS CENTAUR R/B 1.4 05:58:36 42° WNW 05:59:47 62° WSW 06:04:06 10° SSE
SL-27 R/B 2.4 05:58:33 30° NNW 06:00:16 89° NE 06:03:55 10° SSE
NOAA 6 4.1 05:57:31 10° N 06:02:33 51° WNW 06:07:33 10° SW
CZ-2C R/B 2.1 05:57:59 10° N 06:02:38 82° WNW 06:07:21 10° SSW
Centaur D-1A AC-31 3.7 05:58:55 10° SW 06:02:54 27° SSE 06:13:48 10° ESE
Cosmos 2327 Rocket 4.3 05:58:35 10° SSW 06:04:46 74° W 06:10:54 10° N
Meteor 2-8 Rocket 4.5 05:59:41 10° NNW 06:05:40 56° W 06:11:36 10° SSW
Tiangong 2 1.1 06:05:33 54° NW 06:06:00 63° N 06:09:11 10° ENE
Cosmos 1842 Rocket 3.8 06:04:56 10° S 06:09:23 76° E 06:13:53 10° N
Cosmos 1174 3.4 06:09:10 24° NNW 06:11:24 84° WSW 06:14:42 10° SSE
Okean-O 2.9 06:07:38 10° N 06:11:50 43° WNW 06:16:01 10° SW
Cosmos 1484 Rocket 3.8 06:08:16 10° NNE 06:11:54 46° E 06:15:32 10° S
Cosmos 2058 2.9 06:08:50 10° N 06:13:05 87° E 06:17:15 10° S
Cosmos 1763 Rocket 3.7 06:09:41 10° NNW 06:14:46 68° ENE 06:19:52 10° SSE
Cosmos 2154 Rocket 4.0 06:08:56 10° S 06:15:08 84° E 06:21:23 10° N
EO 1 Del DPAF 3.5 06:13:20 10° S 06:16:59 44° W 06:19:44 16° NNW
Cosmos-2242 3.8 06:19:17 10° SW 06:23:00 28° WNW 06:26:42 10° NNW
CZ-4 R/B 3.0 06:25:43 10° NNE 06:29:33 38° E 06:33:17 10° SSE
Cosmos 2278 Rocket 3.1 06:29:38 10° WSW 06:34:25 28° NW 06:39:14 10° N
Cosmos 2184 Rocket 4.4 06:28:42 10° SW 06:34:28 39° WNW 06:40:21 10° N
Cosmos 1300 4.4 06:30:57 10° SSE 06:34:29 37° E 06:38:02 10° NNE
Cosmos 2151 3.1 06:30:37 10° NNW 06:34:51 56° W 06:39:02 10° S
CSL-04 Rocket 4.0 06:33:12 10° NNE 06:38:34 71° ESE 06:43:50 10° S
NOSS 3-1 (C) 3.3 06:33:36 10° SW 06:39:16 74° NW 06:45:40 10° NNE
Cosmos 1818 4.2 06:35:16 10° SSW 06:40:35 61° ESE 06:45:58 10° NE
ORS 1 (USA 231) 4.1 06:39:23 18° WSW 06:41:09 75° S 06:43:43 10° E
Ariane Rocket 3.4 06:39:23 10° NNE 06:44:29 69° ESE 06:49:33 10° S
BREEZE-M DEB (TANK) 4.4 06:43:06 12° NW 06:46:38 61° NNE 06:59:19 10° ESE
MSX 4.2 06:42:41 10° N 06:48:01 41° WNW 06:53:20 10° SW
SMAP 3.1 06:43:27 10° NNE 06:48:08 89° WNW 06:52:47 10° SSW
COSMOS 2487 3.2 06:47:42 10° N 06:51:12 54° ENE 06:54:39 10° SSE
Cosmos 1500 Rocket 3.9 06:47:31 10° NNW 06:51:42 44° W 06:55:50 10° SSW
Nadezhda 3 Rocket 4.2 06:47:08 10° NNW 06:53:17 54° W 06:59:20 10° SSW
MINOTAUR R/B 4.0 06:52:10 10° NW 06:54:11 43° WSW 06:56:13 10° S
SL-8 R/B 3.8 06:52:13 10° WSW 06:56:59 63° NNW 07:01:47 10° ENE
Cosmos 1295 Rocket 4.4 06:50:53 10° SSW 06:57:01 72° W 07:03:08 10° N
Shenzhou-11 Module 2.0 06:54:25 12° WNW 06:57:12 72° NNE 07:00:12 10° E
Cosmos 2221 2.5 06:57:11 10° SSW 07:01:23 59° W 07:05:39 10° N
Cosmos 1726 2.3 06:58:00 10° SSW 07:01:37 48° W 07:05:14 10° N
Abrixas rocket 3.8 07:00:31 10° W 07:03:07 22° SW 07:05:42 10° SSE
Cosmos 540 Rocket 3.7 07:01:14 10° NNW 07:06:23 78° ENE 07:11:28 10° SSE
Cosmos 1908 4.5 07:07:02 10° SW 07:10:08 22° WNW 07:13:15 10° NNW
Gbstr 26 Del rocket 4.3 07:06:28 10° WSW 07:12:33 59° NNW 07:19:57 10° NE
